Regional Weather Roundup
Issued by NWS

Home | Current Version | Previous Version | Graphics & Text | Print | Product List | Glossary Off
Versions: 1 2 3 4 5 6 7 8 9 10 11 12 13 14 15 16 17 18 19 20 21 22 23 24 25 26 27 28 29 30 31 32 33 34 35 36 37 38 39 40 41 42 43 44 45 46 47 48 49 50

000
ASUS43 KDTX 090910
RWRMI
MICHIGAN HOURLY REGIONAL WEATHER ROUNDUP
NATIONAL WEATHER SERVICE DETROIT/PONTIAC MI
ISSUED BY NATIONAL WEATHER SERVICE GRAND RAPIDS MI
400 AM EST FRI DEC 09 2016

NOTE: "FAIR" INDICATES FEW OR NO CLOUDS BELOW 12,000 FEET WITH NO
SIGNIFICANT WEATHER AND/OR OBSTRUCTION TO VISIBILITY.

MIZ047>049-052>055-059>063-066>070-074>076-081>083-091000-
SOUTHEAST LOWER MICHIGAN

CITY           SKY/WX    TMP DP  RH WIND       PRES   REMARKS
ADRIAN         FLURRIES  24  21  88 W10       30.32R WCI  14
ALMA           MOCLDY    25  23  89 W6        30.28S WCI  18
ANN ARBOR      FLURRIES  24  22  91 SW8       30.29R WCI  15
BAD AXE        CLOUDY    27  19  72 NW10G16   30.22S WCI  17
DETROIT CITY   CLOUDY    27  23  85 W7        30.28R WCI  19
DETROIT        FLURRIES  26  21  81 W10       30.30S WCI  16
FLINT          CLOUDY    27  24  89 W8        30.27R WCI  19
GROSSE ILE     CLOUDY    26  21  83 W10       30.29R WCI  15
HILLSDALE      LGT SNOW  23  21  93 W9        30.29R VSB 1   WCI  13
HOWELL         FLURRIES  27  24  91 W7        30.27R WCI  19

CITY           SKY/WX    TMP DP  RH WIND       PRES   REMARKS
JACKSON        LGT SNOW  24  20  84 W12       30.29R FOG     WCI  13
LANSING        CLOUDY    27  24  89 W7        30.29S WCI  19
MASON          LGT SNOW  26  26  96 W5        30.28S WCI  21
MONROE         FLURRIES  25  22  88 W9        30.31R WCI  15
MT. CLEMENS    PTCLDY    27  23  84 W7        30.24R WCI  19
PONTIAC        CLOUDY    27  23  85 W12       30.24R WCI  17
PORT HOPE        N/A     29  19  66 NW16G22   30.20R WCI  17
PORT HURON     MOCLDY    27  23  86 W5        30.24S WCI  21
TRI CITIES     PTCLDY    22  20  92 W8        30.27R WCI  12
YPSILANTI      CLOUDY    26  22  84 W9        30.30R WCI  17
$$
MIZ043>046-050>051-056>058-064>065-071>073-077>080-091000-
SOUTHWEST LOWER MICHIGAN

CITY           SKY/WX    TMP DP  RH WIND       PRES   REMARKS
BATTLE CREEK   LGT SNOW  27  26  96 W7        30.31R VSB 3/4 WCI  19
BENTON HARBOR  CLOUDY    31  22  69 W15G22    30.36R WCI  20
BIG RAPIDS     CLOUDY    26  22  86 W5        30.28R WCI  20
COLDWATER      FLURRIES  24  21  90 SW12G18   30.32R WCI  13
HOLLAND        CLOUDY    30  24  78 N5        30.32R WCI  25
GRAND RAPIDS   LGT SNOW  28  23  81 NW10      30.31S WCI  19
KALAMAZOO      LGT SNOW  28  24  85 W7        30.32R FOG     WCI  21
MARSHALL       LGT SNOW  24  23  93 SW6       30.30S WCI  17
MOUNT PLEASANT CLEAR     24  20  85 W6        30.26S WCI  17
MUSKEGON       CLOUDY    31  19  61 NW13G21   30.33R WCI  21
STURGIS        CLOUDY    21  18  88 W10       30.34R WCI  10
$$
MIZ016>042-091000-
NORTHERN LOWER MICHIGAN

CITY           SKY/WX    TMP DP  RH WIND       PRES   REMARKS
ALPENA         PTCLDY    19  14  81 W6        30.23R WCI  11
BEAVER ISLAND  MOCLDY    25  15  66 N8        30.27R WCI  16
BELLAIRE       LGT SNOW  26  24  96 CALM      30.26R
CADILLAC       LGT SNOW  23  20  87 W7        30.23R VSB 1   WCI  15
CHARLEVOIX     CLOUDY    28  16  59 N15       30.27R WCI  17
GAYLORD        FLURRIES  22  16  78 VRB3      30.20R
HOUGHTON LAKE  CLOUDY    23  19  85 NW7       30.22R WCI  15
MANISTEE       CLOUDY    29  16  58 NW14      30.30R WCI  18
OSCODA         CLOUDY    21  18  87 MISG      30.23R
PELLSTON       FLURRIES  16  12  84 CALM      30.25R
TRAVERSE CITY  MOCLDY    27  20  75 W9        30.26R WCI  18
LUDINGTON      CLOUDY    28  16  60 NW13      30.32R WCI  17
$$
MIZ007>008-015-091000-
EASTERN UPPER MICHIGAN

CITY           SKY/WX    TMP DP  RH WIND       PRES   REMARKS
KINROSS        FLURRIES  16  14  92 NW3       30.24R
MACKINAC ISLAN FLURRIES  22  16  79 N5        30.24S WCI  16
NEWBERRY       CLOUDY    20  13  75 NW3       30.24S
S. S. MARIE    PTCLDY    19   8  62 N3        30.24R
$$
MIZ004>006-011>014-085-091000-
CENTRAL UPPER MICHIGAN

CITY           SKY/WX    TMP DP  RH WIND       PRES   REMARKS
MANISTIQUE     FLURRIES  21  21  98 W5        30.28R WCI  15
ESCANABA       PTCLDY    18  13  80 W9        30.33R WCI   7
MENOMINEE      CLEAR     21  13  71 VRB6      30.36R WCI  13
SAWYER-GWINN   PTCLDY    14  11  89 W9        30.28R WCI   2
$$
MIZ001>003-009>011-084-091000-
WESTERN UPPER MICHIGAN

CITY           SKY/WX    TMP DP  RH WIND       PRES   REMARKS
IRON MOUNTAIN  CLEAR     16   9  74 NW9       30.31R WCI   4
HOUGHTON       LGT SNOW  20  14  77 NW13      30.31R WCI   7
COPPER HARBOR    N/A     25  21  85 NE20G28   30.32R WCI  11
IRONWOOD       LGT SNOW  18  14  86 W12       30.38S FOG     WCI   5
$$

ABBREVIATIONS USED IN REMARKS
   TC - TEMPERATURE IN CELSIUS
  WCI - WIND CHILL INDEX
   HX - HEAT INDEX
  VSB - VISIBILITY





USA.gov is the U.S. government's official web portal to all federal, state and local government web resources and services.